Tracking 19490 objects as of 24-Jan-2019
HD Live streaming from Space Station
objects crossing your sky now

FLOCK 3K 4

Track FLOCK 3K 4 now!
10-day predictions
FLOCK 3K 4 is classified as:


NORAD ID: 43893
Int'l Code: 2018-111T
Perigee: 485.3 km
Apogee: 520.2 km
Inclination: 97.3 °
Period: 94.5 minutes
Semi major axis: 6873 km
RCS: Unknown
Launch date: December 27, 2018
Source: United States (US)
Launch site: VOSTOCHNY COSMODROME (VOSTO)
aabbcc
Your satellite tracking list
Your tracking list is empty




NASA's NSSDC Master Catalog

Two Line Element Set (TLE):
1 43893U 18111T   19023.67015308  .00000696  00000-0  31940-4 0  9996
2 43893  97.2999 292.8158 0025356 148.1750 212.1026 15.23403980  4201
Source of the keplerian elements: AFSPC